DW8903 Weather Reports


time (UTC)temp
F
wind
direction
speed
knots
gust
knots
rain 1hr
in
rain 24hr
in
rain mn
in
humidity
%
barometer
mb
20260507100057 55 321 1.7 7.8 0.00 0.00 0.00 19 1016.2
20260507094540 54 324 0.9 7.0 0.00 0.00 0.00 22 1016.2
20260507093039 54 331 0.9 7.8 0.00 0.00 0.00 23 1016.2
20260507091542 54 277 0.0 6.1 0.00 0.00 0.00 22 1016.3
20260507090035 53 242 1.7 6.1 0.00 0.00 0.00 22 1016.3
20260507084542 52 250 0.9 3.5 0.00 0.00 0.00 22 1016.5
20260507083032 52 240 0.0 3.5 0.00 0.00 0.00 26 1016.5
20260507081529 50 182 0.9 2.6 0.00 0.00 0.00 28 1016.5
20260507080027 49 156 0.0 5.2 0.00 0.00 0.00 28 1016.6
20260507074625 49 177 0.9 2.6 0.00 0.00 0.00 29 1016.5
20260507073124 49 262 0.0 2.6 0.00 0.00 0.00 34 1016.6
20260507071524 48 219 0.0 2.6 0.00 0.00 0.00 34 1016.6
20260507070018 48 171 0.0 1.7 0.00 0.00 0.00 36 1016.6
20260507064515 46 146 0.0 2.6 0.00 0.00 0.00 38 1016.6
20260507063015 46 74 0.9 3.5 0.00 0.00 0.00 42 1016.6
20260507061511 45 84 0.0 2.6 0.00 0.00 0.00 46 1016.6
20260507060014 44 115 0.9 2.6 0.00 0.00 0.00 47 1016.6
20260507054504 42 112 0.0 2.6 0.00 0.00 0.00 54 1016.5
20260507053108 40 67 0.9 3.5 0.00 0.00 0.00 57 1016.6
20260507051559 38 61 0.9 3.5 0.00 0.00 0.00 63 1016.4
20260507050055 33 56 0.9 2.6 0.00 0.00 0.00 73 1016.4
20260507044554 30 34 0.9 2.6 0.00 0.00 0.00 74 1016.5
20260507043043 28 296 0.0 0.0 0.00 0.00 0.00 75 1016.5
20260507041552 26 294 0.0 0.0 0.00 0.00 0.00 78 1016.6
20260507040043 24 294 0.0 0.0 0.00 0.00 0.00 81 1016.5
20260507034540 23 294 0.0 0.0 0.00 0.00 0.00 83 1016.5
20260507033041 22 178 0.0 0.0 0.00 0.00 0.00 84 1016.4
20260507031541 21 178 0.0 0.0 0.00 0.00 0.00 84 1016.4
20260507030037 20 178 0.0 0.0 0.00 0.00 0.00 85 1016.3
20260507024537 20 177 0.0 0.0 0.00 0.00 0.00 84 1016.3
20260507023033 20 177 0.0 0.0 0.00 0.00 0.00 83 1016.4
20260507021536 20 178 0.0 0.0 0.00 0.00 0.00 82 1016.3
20260507020030 20 177 0.0 0.0 0.00 0.00 0.00 82 1016.1
20260507014530 21 198 0.0 1.7 0.00 0.00 0.00 82 1016.1
20260507013026 21 198 0.0 1.7 0.00 0.00 0.00 81 1016.1
20260507011526 22 198 0.9 1.7 0.00 0.00 0.00 80 1016.0
20260507010032 21 198 0.9 1.7 0.00 0.00 0.00 81 1016.1
20260507004523 22 198 0.0 2.6 0.00 0.00 0.00 81 1016.0
20260507003022 22 309 0.0 0.0 0.00 0.00 0.00 80 1015.7
20260507001520 21 309 0.0 0.0 0.00 0.00 0.00 81 1015.8
20260507000025 22 309 0.0 0.0 0.00 0.00 0.00 79 1015.6
20260506234516 23 309 0.0 0.0 0.00 0.00 0.00 78 1015.7
20260506233016 23 309 0.0 0.0 0.00 0.00 0.00 78 1015.6
20260506231518 23 309 0.0 0.0 0.00 0.00 0.00 77 1015.5
20260506230012 23 309 0.0 0.0 0.00 0.00 0.00 76 1015.5
20260506224509 24 309 0.0 0.0 0.00 0.00 0.00 75 1015.4
20260506223008 25 309 0.0 0.0 0.00 0.00 0.00 74 1015.3
20260506221506 24 309 0.0 0.0 0.00 0.00 0.00 74 1015.3
20260506220005 25 309 0.0 0.0 0.00 0.00 0.00 73 1015.2
20260506214503 25 309 0.0 0.0 0.00 0.00 0.00 74 1015.2
20260506213102 27 309 0.0 0.0 0.00 0.00 0.00 71 1015.1
20260506211558 27 309 0.0 0.0 0.00 0.00 0.00 71 1015.0
20260506210055 28 309 0.0 0.0 0.00 0.00 0.00 68 1014.9
20260506204556 28 309 0.0 0.0 0.00 0.00 0.00 68 1014.9
20260506203054 28 309 0.0 0.0 0.00 0.00 0.00 67 1014.9
20260506201554 28 309 0.0 0.0 0.00 0.00 0.00 67 1014.9
20260506200055 29 309 0.0 0.0 0.00 0.00 0.00 65 1015.0
20260506194553 30 309 0.0 0.9 0.00 0.00 0.00 65 1014.9
20260506193055 31 309 0.0 0.0 0.00 0.00 0.00 61 1014.9
20260506191558 32 309 0.0 2.6 0.00 0.00 0.00 61 1014.8
20260506190052 33 309 0.9 1.7 0.00 0.00 0.00 57 1014.8
20260506184555 35 309 1.7 3.5 0.00 0.00 0.00 55 1014.7
20260506183100 37 309 1.7 2.6 0.00 0.00 0.00 52 1014.6
20260506181601 39 309 0.9 2.6 0.00 0.00 0.00 44 1014.6
20260506180048 41 314 1.7 2.6 0.00 0.00 0.00 39 1014.5
20260506174548 42 314 0.9 1.7 0.00 0.00 0.00 35 1014.5
20260506173113 43 314 0.9 2.6 0.00 0.00 0.00 34 1014.3
20260506171546 43 314 1.7 3.5 0.00 0.00 0.00 33 1014.3
20260506164544 45 317 2.6 5.2 0.00 0.00 0.00 31 1014.3
20260506163053 46 319 0.9 4.3 0.00 0.00 0.00 29 1014.2
20260506161544 47 309 0.9 4.3 0.00 0.00 0.00 30 1014.1
20260506160046 48 309 3.5 8.7 0.00 0.00 0.00 32 1014.1
20260506154604 48 322 1.7 7.0 0.00 0.00 0.00 29 1014.1
20260506153043 49 286 1.7 4.3 0.00 0.00 0.00 27 1014.1
20260506151543 50 290 1.7 7.8 0.00 0.00 0.00 28 1014.0
20260506150043 50 294 2.6 7.0 0.00 0.00 0.00 27 1014.2
20260506144551 50 300 1.7 5.2 0.00 0.00 0.00 24 1014.2
20260506143042 51 286 2.6 5.2 0.00 0.00 0.00 26 1014.2
20260506141541 52 338 4.3 10.4 0.00 0.00 0.00 26 1014.1
20260506140041 52 294 2.6 9.6 0.00 0.00 0.00 26 1014.2
20260506134540 52 305 3.5 10.4 0.00 0.00 0.00 29 1014.2
20260506133055 51 333 4.3 8.7 0.00 0.00 0.00 26 1014.1
20260506131539 52 310 2.6 8.7 0.00 0.00 0.00 28 1014.0
20260506130040 52 299 1.7 8.7 0.00 0.00 0.00 32 1014.1
20260506124538 52 292 6.1 11.3 0.00 0.00 0.00 28 1013.9
20260506123037 53 323 3.5 10.4 0.00 0.00 0.00 29 1013.9
20260506121536 53 315 2.6 11.3 0.00 0.00 0.00 30 1013.9
20260506120036 52 323 7.0 14.8 0.00 0.00 0.00 28 1013.8
20260506114539 54 296 2.6 6.1 0.00 0.00 0.00 30 1013.8
20260506113034 54 294 3.5 11.3 0.00 0.00 0.00 28 1013.8
20260506111532 53 319 5.2 11.3 0.00 0.00 0.00 31 1013.6
20260506110039 53 299 3.5 8.7 0.00 0.00 0.00 31 1013.7
20260506104554 52 308 2.6 8.7 0.00 0.00 0.00 30 1013.5
20260506103029 52 318 2.6 6.1 0.00 0.00 0.00 33 1013.5
20260506101532 52 317 3.5 9.6 0.00 0.00 0.00 30 1013.4